Time,TemperatureF,DewpointF,PressureIn,WindDirection,WindDirectionDegrees,WindSpeedMPH,WindSpeedGustMPH,Humidity,HourlyPrecipIn,Conditions,Clouds,dailyrainin,SoftwareType,DateUTC
2013-07-12 00:02:00,60.6,56.0,29.76,SW,232,0.0,-999.0,84,-99.99,,,0.00,weatherlink.com 1.10,2013-07-12 07:02:00,
2013-07-12 00:17:00,60.0,56.0,29.76,SW,232,0.0,-999.0,85,-99.99,,,0.00,weatherlink.com 1.10,2013-07-12 07:17:00,
2013-07-12 00:32:00,59.6,56.0,29.77,SW,232,0.0,-999.0,86,-99.99,,,0.00,weatherlink.com 1.10,2013-07-12 07:32:00,
2013-07-12 00:47:00,59.6,56.0,29.77,SW,232,0.0,-999.0,86,-99.99,,,0.00,weatherlink.com 1.10,2013-07-12 07:47:00,
2013-07-12 01:02:00,59.5,56.0,29.77,SW,232,0.0,-999.0,87,-99.99,,,0.00,weatherlink.com 1.10,2013-07-12 08:02:00,
2013-07-12 01:17:00,59.4,56.0,29.77,SW,232,0.0,-999.0,87,-99.99,,,0.00,weatherlink.com 1.10,2013-07-12 08:17:00,
2013-07-12 01:32:00,59.3,56.0,29.77,SW,232,0.0,-999.0,87,-99.99,,,0.00,weatherlink.com 1.10,2013-07-12 08:32:00,
2013-07-12 01:47:00,59.0,55.0,29.78,SW,232,0.0,-999.0,87,-99.99,,,0.00,weatherlink.com 1.10,2013-07-12 08:47:00,
2013-07-12 02:02:00,58.6,55.0,29.77,SW,232,0.0,-999.0,88,-99.99,,,0.00,weatherlink.com 1.10,2013-07-12 09:02:00,
2013-07-12 02:18:00,58.4,55.0,29.77,SW,232,0.0,-999.0,88,-99.99,,,0.00,weatherlink.com 1.10,2013-07-12 09:18:00,
2013-07-12 02:33:00,58.0,55.0,29.77,SW,232,0.0,-999.0,89,-99.99,,,0.00,weatherlink.com 1.10,2013-07-12 09:33:00,
2013-07-12 02:48:00,57.5,54.0,29.78,SW,232,0.0,-999.0,89,-99.99,,,0.00,weatherlink.com 1.10,2013-07-12 09:48:00,
2013-07-12 03:03:00,57.4,55.0,29.78,SW,232,0.0,-999.0,90,-99.99,,,0.00,weatherlink.com 1.10,2013-07-12 10:03:00,
2013-07-12 03:18:00,57.3,55.0,29.78,SW,232,0.0,-999.0,90,-99.99,,,0.00,weatherlink.com 1.10,2013-07-12 10:18:00,
2013-07-12 03:33:00,57.1,54.0,29.78,SW,232,0.0,-999.0,90,-99.99,,,0.00,weatherlink.com 1.10,2013-07-12 10:33:00,
2013-07-12 03:48:00,56.7,54.0,29.77,SW,232,0.0,-999.0,90,-99.99,,,0.00,weatherlink.com 1.10,2013-07-12 10:48:00,
2013-07-12 04:03:00,56.3,54.0,29.78,SW,232,0.0,-999.0,91,-99.99,,,0.00,weatherlink.com 1.10,2013-07-12 11:03:00,
2013-07-12 04:18:00,56.0,54.0,29.78,SW,232,0.0,-999.0,91,-99.99,,,0.00,weatherlink.com 1.10,2013-07-12 11:18:00,
2013-07-12 04:33:00,55.7,53.0,29.78,SW,232,0.0,-999.0,91,-99.99,,,0.00,weatherlink.com 1.10,2013-07-12 11:33:00,
2013-07-12 04:48:00,55.5,53.0,29.78,SW,232,0.0,-999.0,91,-99.99,,,0.00,weatherlink.com 1.10,2013-07-12 11:48:00,
2013-07-12 05:03:00,55.1,53.0,29.79,SW,232,0.0,-999.0,91,-99.99,,,0.00,weatherlink.com 1.10,2013-07-12 12:03:00,
2013-07-12 05:18:00,54.8,52.0,29.80,SW,232,0.0,-999.0,91,-99.99,,,0.00,weatherlink.com 1.10,2013-07-12 12:18:00,
2013-07-12 05:33:00,54.7,53.0,29.81,SW,232,0.0,-999.0,92,-99.99,,,0.00,weatherlink.com 1.10,2013-07-12 12:33:00,
2013-07-12 05:48:00,54.6,52.0,29.81,SW,232,0.0,-999.0,91,-99.99,,,0.00,weatherlink.com 1.10,2013-07-12 12:48:00,
2013-07-12 06:03:00,54.6,52.0,29.82,SW,232,0.0,-999.0,92,-99.99,,,0.00,weatherlink.com 1.10,2013-07-12 13:03:00,
2013-07-12 06:18:00,55.1,53.0,29.82,SW,232,0.0,-999.0,92,-99.99,,,0.00,weatherlink.com 1.10,2013-07-12 13:18:00,
2013-07-12 06:33:00,56.0,54.0,29.82,SW,232,0.0,-999.0,92,-99.99,,,0.00,weatherlink.com 1.10,2013-07-12 13:33:00,
2013-07-12 06:48:00,57.4,55.0,29.82,SW,233,0.0,-999.0,92,-99.99,,,0.00,weatherlink.com 1.10,2013-07-12 13:48:00,
2013-07-12 07:03:00,59.0,56.0,29.82,SW,233,0.0,-999.0,90,-99.99,,,0.00,weatherlink.com 1.10,2013-07-12 14:03:00,
2013-07-12 07:18:00,60.3,57.0,29.82,SW,233,0.0,-999.0,88,-99.99,,,0.00,weatherlink.com 1.10,2013-07-12 14:18:00,
2013-07-12 07:33:00,61.7,58.0,29.82,SW,233,0.0,-999.0,86,-99.99,,,0.00,weatherlink.com 1.10,2013-07-12 14:33:00,
2013-07-12 07:48:00,63.0,58.0,29.82,SW,233,0.0,-999.0,83,-99.99,,,0.00,weatherlink.com 1.10,2013-07-12 14:48:00,
2013-07-12 08:03:00,63.8,58.0,29.82,SW,233,0.0,-999.0,81,-99.99,,,0.00,weatherlink.com 1.10,2013-07-12 15:03:00,
2013-07-12 08:18:00,64.7,58.0,29.82,SW,233,0.0,-999.0,80,-99.99,,,0.00,weatherlink.com 1.10,2013-07-12 15:18:00,
2013-07-12 08:33:00,65.8,58.0,29.83,SW,233,0.0,-999.0,75,-99.99,,,0.00,weatherlink.com 1.10,2013-07-12 15:33:00,
2013-07-12 08:48:00,67.3,57.0,29.83,SW,233,1.0,-999.0,70,-99.99,,,0.00,weatherlink.com 1.10,2013-07-12 15:48:00,
2013-07-12 09:03:00,68.1,55.0,29.83,South,174,2.0,-999.0,63,-99.99,,,0.00,weatherlink.com 1.10,2013-07-12 16:03:00,
2013-07-12 09:18:00,68.9,55.0,29.84,SW,223,1.0,-999.0,61,-99.99,,,0.00,weatherlink.com 1.10,2013-07-12 16:18:00,
2013-07-12 09:34:00,69.6,55.0,29.84,SSE,153,2.0,-999.0,60,-99.99,,,0.00,weatherlink.com 1.10,2013-07-12 16:34:00,
2013-07-12 09:49:00,70.0,55.0,29.85,West,270,0.0,-999.0,59,-99.99,,,0.00,weatherlink.com 1.10,2013-07-12 16:49:00,
2013-07-12 10:19:00,69.2,55.0,29.86,West,267,3.0,-999.0,61,-99.99,,,0.00,weatherlink.com 1.10,2013-07-12 17:19:00,
2013-07-12 10:34:00,69.8,56.0,29.86,SW,234,1.0,-999.0,61,-99.99,,,0.00,weatherlink.com 1.10,2013-07-12 17:34:00,
2013-07-12 11:04:00,71.6,56.0,29.84,SSW,193,1.0,-999.0,58,-99.99,,,0.00,weatherlink.com 1.10,2013-07-12 18:04:00,
2013-07-12 11:34:00,72.5,55.0,29.83,WNW,288,2.0,-999.0,54,-99.99,,,0.00,weatherlink.com 1.10,2013-07-12 18:34:00,
2013-07-12 11:49:00,74.7,55.0,29.82,West,261,1.0,-999.0,50,-99.99,,,0.00,weatherlink.com 1.10,2013-07-12 18:49:00,
2013-07-12 12:19:00,74.0,55.0,29.82,SW,219,1.0,-999.0,51,-99.99,,,0.00,weatherlink.com 1.10,2013-07-12 19:19:00,
2013-07-12 12:34:00,74.6,55.0,29.81,SW,222,1.0,-999.0,50,-99.99,,,0.00,weatherlink.com 1.10,2013-07-12 19:34:00,
2013-07-12 13:04:00,76.0,55.0,29.80,SW,227,4.0,-999.0,49,-99.99,,,0.00,weatherlink.com 1.10,2013-07-12 20:04:00,
2013-07-12 13:19:00,76.4,55.0,29.80,SW,234,3.0,-999.0,47,-99.99,,,0.00,weatherlink.com 1.10,2013-07-12 20:19:00,
2013-07-12 13:34:00,77.6,55.0,29.79,WNW,296,1.0,-999.0,46,-99.99,,,0.00,weatherlink.com 1.10,2013-07-12 20:34:00,
2013-07-12 14:04:00,78.4,55.0,29.79,West,270,4.0,-999.0,44,-99.99,,,0.00,weatherlink.com 1.10,2013-07-12 21:04:00,
2013-07-12 14:19:00,78.8,55.0,29.77,West,259,5.0,-999.0,44,-99.99,,,0.00,weatherlink.com 1.10,2013-07-12 21:19:00,
2013-07-12 14:34:00,78.0,54.0,29.78,WSW,244,6.0,-999.0,43,-99.99,,,0.00,weatherlink.com 1.10,2013-07-12 21:34:00,
2013-07-12 14:49:00,76.1,54.0,29.79,South,170,3.0,-999.0,47,-99.99,,,0.00,weatherlink.com 1.10,2013-07-12 21:49:00,
2013-07-12 15:04:00,75.0,54.0,29.79,South,171,0.0,-999.0,49,-99.99,,,0.00,weatherlink.com 1.10,2013-07-12 22:04:00,
2013-07-12 15:20:00,73.7,55.0,29.80,SW,227,1.0,-999.0,52,-99.99,,,0.00,weatherlink.com 1.10,2013-07-12 22:20:00,
2013-07-12 15:34:00,71.7,54.0,29.80,South,175,1.0,-999.0,54,-99.99,,,0.00,weatherlink.com 1.10,2013-07-12 22:34:00,
2013-07-12 16:04:00,68.9,56.0,29.82,SW,229,3.0,-999.0,63,-99.99,,,0.00,weatherlink.com 1.10,2013-07-12 23:04:00,
2013-07-12 16:19:00,64.0,58.0,29.85,SE,134,3.0,-999.0,80,-99.99,,,0.01,weatherlink.com 1.10,2013-07-12 23:19:00,
2013-07-12 16:49:00,59.8,56.0,29.83,SSE,165,0.0,-999.0,86,-99.99,,,0.05,weatherlink.com 1.10,2013-07-12 23:49:00,
2013-07-12 17:04:00,59.4,56.0,29.82,SSE,165,0.0,-999.0,88,-99.99,,,0.08,weatherlink.com 1.10,2013-07-13 00:04:00,
2013-07-12 17:19:00,59.2,56.0,29.82,SSE,165,0.0,-999.0,89,-99.99,,,0.12,weatherlink.com 1.10,2013-07-13 00:19:00,
2013-07-12 17:34:00,58.7,56.0,29.77,North,355,3.0,-999.0,90,-99.99,,,0.17,weatherlink.com 1.10,2013-07-13 00:34:00,
2013-07-12 17:49:00,58.0,55.0,29.74,ENE,63,3.0,-999.0,88,-99.99,,,0.20,weatherlink.com 1.10,2013-07-13 00:49:00,
2013-07-12 18:04:00,58.3,56.0,29.77,North,9,0.0,-999.0,90,-99.99,,,0.20,weatherlink.com 1.10,2013-07-13 01:04:00,
2013-07-12 18:19:00,58.7,56.0,29.78,North,9,0.0,-999.0,91,-99.99,,,0.20,weatherlink.com 1.10,2013-07-13 01:19:00,
2013-07-12 18:34:00,59.1,57.0,29.80,North,9,0.0,-999.0,92,-99.99,,,0.20,weatherlink.com 1.10,2013-07-13 01:34:00,
2013-07-12 18:49:00,59.2,57.0,29.80,WNW,302,0.0,-999.0,91,-99.99,,,0.20,weatherlink.com 1.10,2013-07-13 01:49:00,
2013-07-12 19:04:00,59.2,57.0,29.81,WNW,302,0.0,-999.0,91,-99.99,,,0.20,weatherlink.com 1.10,2013-07-13 02:04:00,
2013-07-12 19:19:00,59.4,57.0,29.81,WNW,302,0.0,-999.0,91,-99.99,,,0.20,weatherlink.com 1.10,2013-07-13 02:19:00,
2013-07-12 19:34:00,59.2,57.0,29.81,WNW,302,0.0,-999.0,91,-99.99,,,0.20,weatherlink.com 1.10,2013-07-13 02:34:00,
2013-07-12 20:04:00,58.7,56.0,29.80,WNW,302,0.0,-999.0,92,-99.99,,,0.20,weatherlink.com 1.10,2013-07-13 03:04:00,
2013-07-12 20:19:00,58.4,56.0,29.81,WNW,302,0.0,-999.0,92,-99.99,,,0.20,weatherlink.com 1.10,2013-07-13 03:19:00,
2013-07-12 20:34:00,58.0,56.0,29.81,WNW,302,0.0,-999.0,92,-99.99,,,0.20,weatherlink.com 1.10,2013-07-13 03:34:00,
2013-07-12 20:49:00,57.7,55.0,29.82,WNW,302,0.0,-999.0,92,-99.99,,,0.20,weatherlink.com 1.10,2013-07-13 03:49:00,
2013-07-12 21:04:00,57.3,55.0,29.83,WNW,302,0.0,-999.0,92,-99.99,,,0.20,weatherlink.com 1.10,2013-07-13 04:04:00,
2013-07-12 21:19:00,56.9,55.0,29.84,WNW,302,0.0,-999.0,92,-99.99,,,0.20,weatherlink.com 1.10,2013-07-13 04:19:00,
2013-07-12 21:34:00,56.6,54.0,29.85,NE,38,0.0,-999.0,92,-99.99,,,0.20,weatherlink.com 1.10,2013-07-13 04:34:00,
2013-07-12 21:49:00,56.3,54.0,29.86,NE,38,0.0,-999.0,92,-99.99,,,0.20,weatherlink.com 1.10,2013-07-13 04:49:00,
2013-07-12 22:04:00,56.0,54.0,29.86,NE,38,0.0,-999.0,91,-99.99,,,0.20,weatherlink.com 1.10,2013-07-13 05:04:00,
2013-07-12 22:20:00,55.8,54.0,29.86,NE,38,0.0,-999.0,92,-99.99,,,0.20,weatherlink.com 1.10,2013-07-13 05:20:00,
2013-07-12 22:35:00,55.7,53.0,29.87,NE,38,0.0,-999.0,91,-99.99,,,0.20,weatherlink.com 1.10,2013-07-13 05:35:00,
2013-07-12 22:50:00,55.4,53.0,29.87,NE,38,0.0,-999.0,91,-99.99,,,0.20,weatherlink.com 1.10,2013-07-13 05:50:00,
2013-07-12 23:05:00,55.0,53.0,29.87,NE,38,0.0,-999.0,91,-99.99,,,0.20,weatherlink.com 1.10,2013-07-13 06:05:00,
2013-07-12 23:20:00,54.9,53.0,29.87,NE,38,0.0,-999.0,92,-99.99,,,0.20,weatherlink.com 1.10,2013-07-13 06:20:00,
2013-07-12 23:35:00,54.9,52.0,29.86,NE,38,0.0,-999.0,91,-99.99,,,0.20,weatherlink.com 1.10,2013-07-13 06:35:00,
2013-07-12 23:50:00,54.8,52.0,29.86,NE,38,0.0,-999.0,91,-99.99,,,0.20,weatherlink.com 1.10,2013-07-13 06:50:00,